Regional Weather Roundup
Issued by NWS Little Rock, AR

Home | Current Version | Previous Version | Text Only | Print | Product List | Glossary On
Versions: 1 2 3 4 5 6 7 8 9 10 11 12 13 14 15 16 17 18 19 20 21 22 23 24 25 26 27 28 29 30 31 32 33 34 35 36 37 38 39 40 41 42 43 44 45 46 47 48 49
000
ASUS44 KLZK 211405
RWRLZK

WEATHER ROUNDUP FOR ARKANSAS
NATIONAL WEATHER SERVICE LITTLE ROCK AR
800 AM CST SUN DEC 21 2014

NOTE: "FAIR" INDICATES FEW OR NO CLOUDS BELOW 12,000 FEET WITH NO
SIGNIFICANT WEATHER AND/OR OBSTRUCTIONS TO VISIBILITY.

ARZ001-003-010-029-211500-
NORTHWEST ARKANSAS

CITY           SKY/WX    TMP DP  RH WIND       PRES   REMARKS
FAYETTEVILLE   CLOUDY    41  39  93 S6        30.11F
FORT SMITH     CLOUDY    44  40  85 E5        30.14F
HARRISON       CLOUDY    38  38 100 SE10      30.13F FOG
BENTONVILLE    CLOUDY    43  37  81 S10       30.11S
ROGERS         LGT RAIN  41  39  93 SE8       30.11S
SILOAM SPGS    CLOUDY    43  36  75 SE9       30.11S
HIGHFILL       CLOUDY    42  40  92 SE14      30.09F
SPRINGDALE     CLOUDY    41  39  93 SE7       30.12F FOG
$$

ARZ004-005-016-211500-
NORTH CENTRAL ARKANSAS

CITY           SKY/WX    TMP DP  RH WIND       PRES   REMARKS
BATESVILLE     CLOUDY    39  34  81 E5        30.20F
FLIPPIN        CLOUDY    39  34  81 CALM      30.16F
MTN HOME       CLOUDY    38  35  89 SE7       30.16F
$$

ARZ040-041-211500-
WEST CENTRAL ARKANSAS

CITY           SKY/WX    TMP DP  RH WIND       PRES   REMARKS
MENA           CLOUDY    43  39  87 E3        30.14F
MOUNT IDA      CLOUDY    39  37  92 CALM      30.13F FOG
$$

ARZ009-017-025-026-028-211500-
NORTHEAST ARKANSAS

CITY           SKY/WX    TMP DP  RH WIND       PRES   REMARKS
CORNING        PTSUNNY   39  32  75 SE5       30.22F
JONESBORO      CLOUDY    36  33  89 E9        30.22F
NEWPORT        CLOUDY    39  34  82 E3        30.23F
WALNUT RIDGE   CLOUDY    39  30  70 SE5       30.20F
BLYTHEVILLE    CLOUDY    34  31  88 E6        30.24S WCI  29
$$

ARZ022-023-033-042-044-211500-
CENTRAL ARKANSAS

CITY           SKY/WX    TMP DP  RH WIND       PRES   REMARKS
LITTLE ROCK    MOCLDY    35  32  88 CALM      30.21S
N LITTLE ROCK  MOCLDY    36  35  96 NE5       30.21S
SEARCY         CLOUDY    37  36  96 NE5       30.22F
HOT SPRINGS    MIX PCPN  32  32 100 CALM      30.18F VSB 1/4
RUSSELLVILLE   CLOUDY    41  35  79 E3        30.18F
CLINTON        CLOUDY    41  36  81 CALM      30.21S HAZE
$$

ARZ036-211500-
EAST ARKANSAS

CITY           SKY/WX    TMP DP  RH WIND       PRES   REMARKS
WEST MEMPHIS   PTCLDY    33  31  92 NE5       30.21S WCI  29
$$

ARZ050-053-066-070-073-211500-
SOUTHWEST ARKANSAS

CITY           SKY/WX    TMP DP  RH WIND       PRES   REMARKS
ARKADELPHIA    FAIR      35  35 100 NE6       30.20F FOG     WCI  30
CAMDEN         MOCLDY    32  28  86 MISG      30.20F FOG
TEXARKANA      CLOUDY    37  36  96 E6        30.17S FOG
EL DORADO      PTCLDY    35  33  92 CALM      30.18S FOG
DE QUEEN       CLOUDY    42  38  85 E6        30.15F FOG
$$

ARZ056-057-069-211500-
SOUTHEAST ARKANSAS

CITY           SKY/WX    TMP DP  RH WIND       PRES   REMARKS
PINE BLUFF     MOCLDY    33  33 100 CALM      30.21R FOG
STUTTGART        N/A     34  30  86 NE6       30.21S WCI  29
MONTICELLO     MOCLDY    35  33  92 CALM      30.18S FOG

$$




USA.gov is the U.S. government's official web portal to all federal, state and local government web resources and services.